RH
12 8 5 3 2 2 1 2 2 2 2 2 2 2 3 3 3 3 3 3 3 3 3 3 2 2 2 3 3 3 4 4 5
10 6 4 3 2 2 2 2 2 2 2 2 2 3 4 4 4 4 4 5 4 4 4 4 4 4 3 3 3 4 5 5 6
10 6 4 4 3 2 2 2 3 3 3 3 4 6 6 6 6 6 6 7 7 7 8 8 8 8 7 6 4 4 5 6 6
10 6 5 4 3 3 3 4 4 3 4 6 6 7 7 7 6 5 5 5 6 7 8 9 10 11 12 12 10 7 6 6 7
10 6 5 4 3 4 5 4 5 6 7 8 9 8 6 4 4 4 4 5 6 7 8 8 8 8 10 12 16 16 13 9 8
11 7 5 4 4 5 5 6 7 8 9 10 8 5 4 4 6 7 8 9 9 9 9 9 11 12 12 13 16 18 21 18 14
13 8 6 6 5 6 7 8 9 11 11 9 7 7 8 10 12 12 12 12 11 11 14 16 17 18 18 18 17 17 19 25 25
13 10 7 7 7 7 8 10 11 11 10 9 10 12 14 14 14 15 15 14 12 14 18 21 20 18 16 18 21 24 20 20 25
12 10 8 8 8 8 10 12 13 12 11 10 12 14 16 16 16 17 14 13 13 12 14 14 11 11 15 21 32 40 40 41 46
15 12 10 10 8 9 12 14 14 12 12 12 15 17 19 18 18 14 15 17 16 15 15 12 11 13 18 25 37 37 32 32 39
18 15 14 12 10 10 11 13 13 11 13 14 14 22 19 19 16 19 24 20 20 17 11 9 11 13 16 22 21 18 19 21 24
20 18 16 13 11 11 11 12 11 11 13 14 18 20 19 16 27 33 30 24 16 10 8 8 15 18 19 19 18 15 15 14 14
23 21 18 15 13 12 12 12 13 12 12 17 18 21 19 29 37 34 23 17 12 9 8 9 16 19 21 15 8 9 4 4 5
30 25 20 17 15 14 14 14 13 13 16 26 25 33 32 38 35 19 14 10 9 9 8 10 13 14 8 4 4 3 4 4 6
34 28 23 20 18 18 19 17 16 21 28 27 40 41 41 57 28 19 14 10 9 9 9 13 9 5 4 4 4 4 5 5 6
36 30 28 25 23 35 32 27 27 53 61 69 68 43 62 49 27 17 12 10 10 9 9 10 6 4 3 4 6 7 9 9 10
41 37 34 34 71 77 78 77 69 69 80 73 45 51 49 32 17 15 12 10 9 10 10 9 4 3 4 5 8 7 11 15 16
74 83 57 66 83 85 77 71 71 77 71 64 49 46 32 20 22 15 12 10 11 12 10 8 4 4 4 7 7 6 11 17 20
96 93 81 81 75 64 52 65 66 63 66 55 43 35 33 39 28 14 11 11 16 12 11 6 5 4 4 8 8 8 16 19 22
96 93 91 79 72 40 54 54 50 53 52 31 35 43 43 31 19 16 10 16 20 11 12 6 5 5 6 7 7 12 18 18 19
Wind_Speed
5 5 5 6 6 7 7 8 8 9 10 11 12 12 13 14 15 15 16 16 16 17 18 19 20 20 20 20 21 22 21 20 20
5 6 6 6 6 7 7 8 8 9 10 11 13 14 14 15 15 16 16 17 18 18 19 20 21 23 23 23 22 23 23 22 23
7 6 7 6 6 7 7 8 8 9 11 13 14 15 15 15 15 16 17 18 18 19 20 21 22 23 23 23 23 23 23 23 23
7 7 7 7 6 6 7 8 9 11 12 13 14 14 15 16 16 18 19 20 20 20 21 22 24 25 24 25 25 23 23 23 23
7 7 8 7 6 7 8 10 11 12 13 14 14 15 16 18 19 19 20 21 22 22 24 24 25 24 25 25 25 24 24 23 23
8 8 8 8 7 8 9 11 12 13 14 15 16 17 18 19 20 21 21 22 23 24 25 24 24 25 26 27 26 26 24 25 25
10 9 9 9 8 9 10 12 13 14 16 16 17 18 19 21 23 23 23 24 25 26 27 26 26 27 28 27 27 27 27 27 27
13 11 11 10 10 10 12 13 15 16 18 18 20 21 22 22 24 25 26 26 27 27 28 28 29 29 29 29 29 29 29 28 29
15 14 14 13 13 13 13 14 15 17 18 20 22 23 24 25 27 27 27 28 29 30 30 30 30 30 29 28 27 27 28 29 30
18 17 17 16 15 15 16 16 17 18 19 21 23 23 24 26 28 28 29 29 31 31 32 31 30 30 29 28 28 29 29 30 30
20 20 19 18 18 18 18 19 19 20 20 23 23 24 26 27 29 30 31 32 33 33 32 32 32 30 30 30 29 30 32 32 32
22 22 21 21 21 21 21 21 22 22 23 24 24 25 27 28 31 33 34 34 35 35 34 33 32 31 30 30 31 34 35 36 37
25 25 23 23 23 23 23 24 24 24 26 26 26 27 29 30 33 35 36 37 36 36 35 34 32 31 30 32 34 34 34 32 31
28 28 26 26 25 26 26 25 25 27 29 29 28 28 30 32 35 36 38 38 37 37 36 35 32 31 32 34 33 30 29 31 33
31 31 29 28 28 28 27 27 28 30 31 30 29 30 32 33 37 38 39 40 39 38 37 34 32 32 34 32 29 31 32 32 33
34 34 32 31 30 30 30 30 31 31 32 30 31 33 34 36 39 40 41 41 40 38 37 34 33 33 32 28 29 33 35 37 37
38 34 33 33 32 31 30 31 33 33 33 34 34 33 36 39 41 43 42 40 41 39 37 34 34 33 31 30 31 34 37 39 41
35 34 36 36 35 33 35 35 36 35 35 37 37 36 39 40 40 40 41 41 41 38 37 34 34 33 32 32 34 38 40 41 41
39 38 38 38 39 39 39 37 38 39 38 39 38 39 41 45 44 39 38 40 39 37 35 34 34 34 34 34 37 40 42 42 42
41 41 42 41 42 42 39 40 40 40 40 39 39 40 45 46 43 41 39 38 41 38 36 35 34 34 34 37 40 42 43 43 40
Wind_Direction
284 299 311 314 322 324 328 335 337 338 340 343 344 344 338 340 335 334 335 335 335 335 335 334 333 331 328 324 322 316 311 310 307
286 297 306 312 318 322 330 337 339 342 345 344 346 342 340 337 333 334 333 334 336 336 335 334 334 333 331 328 324 318 314 313 310
286 298 300 308 316 325 333 336 338 345 347 350 346 340 335 332 332 331 331 333 333 332 332 333 333 332 332 331 327 320 316 314 310
284 289 297 301 312 322 331 334 341 344 347 344 337 333 329 327 329 329 329 329 328 329 328 330 330 330 331 331 328 325 321 316 312
272 282 286 295 309 322 329 334 338 338 337 334 331 328 324 325 328 329 329 327 326 328 327 329 329 328 328 325 325 325 323 317 311
262 272 283 293 309 320 324 328 330 328 328 326 325 323 324 325 327 328 326 325 325 327 327 328 328 328 327 326 325 323 319 316 314
261 272 283 295 306 314 316 317 318 320 320 320 320 320 322 324 325 325 323 323 324 324 323 324 325 324 323 324 322 319 318 316 314
273 280 286 292 300 303 304 308 311 313 314 315 316 318 320 323 322 322 322 322 323 322 322 322 323 322 322 322 319 316 315 314 313
272 280 285 289 291 290 293 296 299 304 307 309 312 315 318 319 319 319 318 320 320 322 321 320 319 320 318 317 317 317 317 316 315
265 271 277 281 282 283 286 290 294 298 301 303 306 308 311 314 315 314 314 316 318 319 317 317 317 315 314 315 315 316 314 313 311
259 264 270 275 277 280 284 287 291 293 295 298 301 303 307 310 311 310 312 315 316 314 314 314 313 313 313 314 314 315 314 312 309
257 262 267 271 275 278 282 285 288 291 292 294 296 299 304 308 309 310 309 311 312 311 312 311 309 310 311 312 313 312 311 309 307
256 260 265 268 271 275 278 282 286 287 290 292 294 299 305 309 309 308 309 308 310 310 310 310 308 308 310 312 312 312 312 314 312
255 259 262 266 270 274 277 281 284 286 289 289 292 298 305 307 307 306 307 308 308 308 309 307 306 307 310 311 311 313 311 310 308
255 259 262 266 270 274 279 281 284 287 287 290 293 300 303 305 305 306 306 306 306 306 306 304 305 307 308 308 309 311 312 307 306
255 258 261 266 273 275 277 279 282 284 285 289 292 297 301 303 303 304 305 304 303 302 303 302 302 306 306 306 309 310 311 308 306
252 258 264 268 268 272 277 279 283 285 285 289 291 295 299 300 303 304 302 302 301 305 301 299 302 303 302 302 307 311 311 308 306
258 261 264 265 268 272 277 280 284 286 288 289 292 294 298 297 299 300 299 299 298 298 297 298 301 300 299 299 306 310 311 308 304
252 258 262 267 273 275 278 282 284 286 286 287 291 297 299 299 298 297 297 296 297 296 296 296 299 298 299 300 303 309 309 306 304
255 260 263 265 269 274 278 279 281 282 282 285 289 295 297 298 296 297 297 298 299 295 293 297 299 297 299 301 303 307 307 306 303